Regional Weather Roundup
Issued by NWS

Home | Current Version | Previous Version | Text Only | Print | Product List | Glossary Off
Versions: 1 2 3 4 5 6 7 8 9 10 11 12 13 14 15 16 17 18 19 20 21 22 23 24 25 26 27 28 29 30 31 32 33 34 35 36 37 38 39 40 41 42 43 44 45 46 47 48 49 50

000
ASUS45 KBOU 200707
RWRCO

WEATHER ROUNDUP FOR COLORADO
NATIONAL WEATHER SERVICE DENVER/BOULDER CO
1200 AM MST SAT DEC 20 2014

NOTE: "FAIR" INDICATES FEW OR NO CLOUDS BELOW 12000 FEET WITH NO
SIGNIFICANT WEATHER AND/OR OBSTRUCTIONS TO VISIBILITY.

COZ001>005-013-030-031-200800-
...NORTHWEST COLORADO...

CITY           SKY/WX    TMP DP  RH WIND       PRES   REMARKS
CRAIG          CLOUDY    19  16  88 CALM      30.17F
HAYDEN         CLOUDY    21  14  73 E8        30.16F WCI  12
MEEKER         CLOUDY    22  16  78 E5        30.17F WCI  16
MOUNT WERNER   NOT AVBL
STEAMBOAT SPGS CLOUDY    15  12  90 CALM      30.16F
WALDEN         CLOUDY    14  10  85 E8        30.10F WCI   3
$$

COZ006>008-011-200800-
...WEST CENTRAL VALLEYS...

CITY           SKY/WX    TMP DP  RH WIND       PRES   REMARKS
GRAND JUNCTION CLOUDY    29  27  92 SE7       30.21F WCI  22
MONTROSE       PTCLDY    25  20  81 SE7       30.25R WCI  17
EAGLE          PTCLDY    16  14  93 E5        30.23F WCI   9
RIFLE          CLOUDY    26  20  77 E3        30.23S
DELTA          PTCLDY    28  22  77 E6        30.24S WCI  21
NUCLA          PTCLDY    27  23  86 E13       30.25S WCI  16
$$

COZ017>023-064>068-200800-
...SOUTHWEST COLORADO...

CITY           SKY/WX    TMP DP  RH WIND       PRES   REMARKS
DURANGO        PTCLDY    23  21  92 CALM      30.19R
CORTEZ         CLEAR     24  22  91 E7        30.22R WCI  16
PAGOSA SPRINGS PTCLDY    17  17  97 CALM      30.18F
TELLURIDE      PTCLDY    17  13  84 SE6       30.20R WCI   8
WOLF CREEK PAS CLEAR     19   3  49 MISG      30.15F
$$

COZ009-010-012-014-032>034-037-058>063-200800-
...CENTRAL COLORADO...

CITY           SKY/WX    TMP DP  RH WIND       PRES   REMARKS
ASPEN          PTCLDY     9   5  84 S7        30.19R WCI  -2
BUENA VISTA    PTCLDY    14   7  73 NW6       30.13S WCI   5
COPPER MTN     PTCLDY    16   9  73 W18       30.11F WCI  -1
BERTHOUD PASS  MOCLDY    10   5  79 MISG      30.05F
COTTONWOOD PAS PTCLDY    27   9  46 N8        30.10S WCI  18
GUNNISON       PTCLDY     9   7  92 N3        30.24R
KREMMLING      PTCLDY     5   3  92 CALM      30.20S
LEADVILLE      PTCLDY     6   1  80 N6        30.11S WCI  -4
MONARCH PASS     N/A     10   7  85 MISG      30.20F
SALIDA         PTCLDY    27  11  53 NW14      30.19S WCI  15
SUNLIGHT       MOCLDY   N/A N/A N/A CALM      30.17S
WILKERSON PASS MOCLDY    21   9  58 NW9G20    30.12S WCI  11
$$

COZ069>075-200800-
...SAN LUIS VALLEY/SANGRE DE CRISTO MOUNTAINS...

CITY           SKY/WX    TMP DP  RH WIND       PRES   REMARKS
ALAMOSA        MOCLDY    12   8  84 CALM      30.16S
LA VETA PASS   MOCLDY    16  10  79 MISG      30.09F
SAGUACHE       PTCLDY    19  10  68 NW7       30.16F WCI  10
$$

COZ035-036-038>040-200800-
...NORTHERN COLORADO FRONT RANGE...

CITY           SKY/WX    TMP DP  RH WIND       PRES   REMARKS
DENVER INTL AP PTCLDY    32  15  49 SW7       30.01R WCI  26
DMNS CITY PARK   N/A     28  17  62 SE5       30.00S WCI  23
AURORA         MOCLDY    30  15  53 S10       30.01R WCI  21
FRONT RANGE AP PTCLDY    32  19  59 SW8       30.01R WCI  25
ERIE MUNI ARPT   N/A     21  15  78 SW6       30.01F WCI  14
BOULDER MUN AP PTCLDY    32  18  55 S5        30.00S WCI  27
CENTENNIAL     PTCLDY    27  16  63 S9        30.00R WCI  18
BROOMFIELD     PTCLDY    34  16  47 N7        30.01R WCI  28
FORT COLLINS   CLEAR     27  18  69 CALM      30.01F
LONGMONT       CLEAR     23  16  73 SE3       30.04R
$$

COZ041-046-047-076>085-087-088-200800-
...PIKES PEAK/PALMER DIVIDE AND SOUTHERN FOOTHILLS...

CITY           SKY/WX    TMP DP  RH WIND       PRES   REMARKS
COLO. SPRINGS  CLOUDY    25  19  78 N7        30.04F WCI  17
A. F. ACADEMY  MOCLDY    19  13  76 N9        30.03F WCI   8
ELLICOTT       NOT AVBL
FALCON         CLOUDY    25  20  80 W5        30.04F WCI  19
FORT CARSON    CLOUDY    28  17  64 N7        30.03F WCI  21
LIMON          MOCLDY    19  16  88 N7        30.02F WCI  10
MONUMENT HILL  MOCLDY    25  18  74 SW8       30.00F WCI  16
TRINIDAD       MOCLDY    28  16  60 W12       30.07S WCI  18
$$

COZ042>045-048>051-090-091-200800-
...NORTHEAST COLORADO...

CITY           SKY/WX    TMP DP  RH WIND       PRES   REMARKS
GREELEY ARPT   CLEAR     16   7  67 N7        30.00F WCI   6
AKRON          MOCLDY    32  23  69 SW12      30.00F WCI  23
BURLINGTON     PTCLDY    31  26  82 SW10      30.04F WCI  22
WRAY           CLEAR     28  24  86 W7        30.02F WCI  20
STERLING         N/A     14  12  92 CALM      30.01S FOG
HOLYOKE        CLEAR     19  14  79 W7        30.02F WCI  10
FORT MORGAN    MOCLDY    24  15  70 W7        30.01S WCI  16
$$

COZ086-089-092>099-200800-
...SOUTHEAST COLORADO...

CITY           SKY/WX    TMP DP  RH WIND       PRES   REMARKS
PUEBLO         CLOUDY    27  20  75 SW6       30.05S WCI  20
LA JUNTA       PTCLDY    27  22  81 CALM      30.05F
LAMAR          CLEAR     20  17  88 SW3       30.05F
SPRINGFIELD      N/A     25  22  88 W3        30.04F
$$


USA.gov is the U.S. government's official web portal to all federal, state and local government web resources and services.